Vertical_Velocity
-0 0 1 2 2 2 1 -0 -4 -4 -1 3 3 1 -2 -4 -4 -2 -1 -1 -3 -4 -3 -1 -1 -1 -1 -3 -3 -3 -2 -2 -2 -1 -1 -1 -0 -0 -0 -0 -1 -1 -2 -3 -1 2 5 3 1 0 -0 0 -0 -0 -1 -2 -2 -3 -2 -2 -1 -0 0 0 -0 -0 0 -0 -1
2 2 2 3 3 2 1 -1 -4 -3 -0 2 1 -1 -4 -5 -1 0 0 -3 -4 -4 -3 -2 -2 -2 -2 -3 -3 -3 -2 -2 -2 -1 -1 -1 -0 0 0 -0 -1 -3 -3 -2 3 6 6 3 1 0 -0 -1 -1 -2 -3 -3 -2 0 2 3 3 3 3 2 1 1 1 0 -0
6 6 5 4 3 2 -0 -2 -2 -1 -1 -1 -2 -2 -2 -1 2 1 -1 -5 -5 -4 -3 -3 -3 -2 -2 -2 -3 -3 -2 -2 -2 -1 -1 -1 0 1 1 1 -2 -3 -2 4 6 5 2 2 0 0 0 -0 -2 -1 0 2 4 6 8 8 8 6 5 3 2 2 1 1 -0
8 8 6 5 4 2 -0 -3 -3 -3 -2 0 1 1 2 2 1 -1 -3 -5 -5 -4 -3 -2 -2 -2 -2 -2 -2 -2 -2 -2 -2 -1 -1 -1 0 1 1 2 -1 -2 -0 6 3 0 -1 1 -0 -0 -0 -1 -2 -1 2 6 7 7 6 6 7 6 4 2 2 2 1 0 -1
7 7 7 5 5 2 -2 -8 -7 -4 2 7 6 3 1 0 -1 -2 -3 -4 -4 -4 -2 -1 -2 -2 -2 -2 -2 -2 -2 -2 -2 -1 -1 -0 0 1 2 2 -0 -1 0 5 2 0 -1 -1 -1 -1 -1 -1 -2 -2 1 7 7 5 1 -0 1 2 3 2 2 2 1 0 -1
4 5 5 3 1 -3 -7 -10 -3 3 8 8 4 1 -0 -0 -1 -1 -2 -2 -2 -2 -1 -2 -2 -2 -2 -2 -2 -2 -2 -2 -2 -1 -1 -0 0 1 2 2 1 -0 -1 1 2 3 3 2 0 -1 -1 -2 -1 -2 -1 5 7 5 1 -2 -2 -0 2 4 4 2 1 -1 -1
-0 0 -1 -4 -5 -5 -2 2 7 9 8 4 2 1 0 0 -1 -1 -1 -1 -1 -1 -1 -1 -1 -1 -2 -2 -2 -2 -2 -2 -1 -1 -0 0 1 1 1 1 1 1 0 -1 -1 1 5 8 3 0 -1 -1 -1 -2 -1 2 6 6 5 3 3 3 4 4 2 1 -0 -1 -1
-0 -2 -3 -2 1 3 6 8 7 6 3 1 1 1 1 -0 -1 -1 -0 0 -1 -1 -0 0 -0 -1 -1 -1 -1 -1 -1 -1 -1 -1 -0 0 1 1 1 1 1 1 1 1 -1 -0 2 6 4 2 -0 -0 -1 -2 -2 1 4 5 4 4 4 4 4 2 0 -0 -0 -0 -1
1 -0 -0 2 4 5 5 5 3 2 1 0 1 0 0 -1 -1 -0 -0 -1 -1 -0 0 -0 -0 -0 -0 -1 -0 -0 -0 -1 -0 -0 0 0 1 1 0 0 0 0 1 1 1 0 0 3 3 1 0 1 -1 -2 -2 1 3 3 1 0 0 1 1 1 0 0 0 0 -1
0 0 1 2 3 3 3 2 1 0 -0 0 0 -0 -0 -1 -1 -1 -1 -1 -0 -1 -1 -1 0 0 -0 -0 0 0 0 -0 0 0 0 1 1 0 -0 -0 0 0 0 0 1 0 0 1 1 0 -0 -0 -1 -2 -2 -1 1 1 1 -0 -0 -1 -1 -1 -0 -0 -1 -1 -1
1 1 1 2 2 2 1 1 -0 -0 -0 -0 -0 -1 -1 -1 -2 -2 -2 -1 -1 -1 -1 0 0 -0 0 1 1 0 0 0 0 1 1 1 0 0 -0 -0 0 0 0 -0 0 0 0 -0 -0 -0 0 -0 -1 -1 -2 -2 -1 -0 -0 0 -1 -1 -2 -2 -2 -2 -2 -1 1
2 2 2 2 2 2 1 0 -0 -0 -1 -1 -1 -1 -1 -1 -1 -2 -2 -2 -2 -1 0 0 -0 0 1 1 1 0 0 1 1 1 1 1 0 0 0 0 0 0 -0 -1 -1 -0 0 -0 -0 0 1 1 -0 -1 -2 -2 -2 -1 -1 -1 -2 -2 -3 -4 -4 -3 -1 3 4
3 3 3 3 3 2 1 0 -0 -1 -1 -1 -1 -1 -1 -1 -1 -2 -2 -2 -1 -0 0 -0 0 1 1 1 1 1 1 1 1 1 1 1 1 1 0 0 0 0 -0 -1 -1 -1 -0 -0 -1 0 1 -0 -2 -2 -3 -3 -2 -1 0 -1 -2 -3 -4 -4 -4 -1 3 7 6
3 3 3 3 3 2 1 0 -0 -1 -1 -1 -1 -1 -1 -1 -1 -2 -2 -1 -0 -0 -0 0 1 1 1 1 1 1 1 1 1 1 1 1 1 1 1 0 0 0 0 -0 -1 -0 -0 -1 -0 1 1 -1 -2 -3 -3 -2 1 3 2 -0 -1 -2 -3 -4 -2 2 6 8 6
2 3 3 3 2 1 1 0 -1 -1 -1 -1 -1 -1 -1 -1 -2 -2 -1 -1 -0 -0 0 0 1 1 1 1 1 1 1 1 1 2 2 2 1 1 1 1 1 1 0 0 -0 0 0 -0 1 2 2 1 1 3 5 7 9 7 4 1 2 2 2 1 2 5 7 6 4
1 1 1 1 0 0 -0 -0 -1 -1 -1 -1 -0 -1 -1 -1 -1 -1 -1 -1 -0 0 0 0 1 1 1 2 2 2 2 1 2 2 2 2 2 1 1 1 1 1 1 0 0 0 0 -0 -0 0 1 4 7 11 15 17 12 6 2 2 4 6 7 7 8 8 7 5 3
0 0 -0 -1 -1 -1 -1 -1 -2 -2 -1 -0 -0 -0 -1 -1 -1 -1 -1 -0 0 0 0 1 1 1 1 2 2 3 3 2 2 2 2 2 2 2 1 1 1 1 1 0 0 0 0 -0 -1 0 3 7 9 12 14 16 8 3 0 1 4 7 10 12 11 10 8 5 2
-0 -1 -1 -1 -1 -1 -1 -2 -2 -1 -1 0 0 0 -0 -0 -1 -1 -1 0 0 0 1 1 1 1 2 3 3 3 3 3 3 3 2 2 2 2 2 1 1 1 1 0 0 -0 -0 -0 -0 3 7 9 7 7 6 6 3 1 -0 0 3 7 10 11 9 8 7 6 3
-1 -1 -1 -1 -1 -1 -1 -1 -1 -0 0 1 1 0 0 0 -0 -0 0 0 1 1 2 2 2 2 3 3 3 3 4 4 3 3 2 2 2 2 1 1 1 1 0 0 0 0 0 0 1 5 8 8 4 2 0 0 1 1 0 0 2 5 7 7 6 5 5 5 3
-1 -1 -1 -1 -0 -0 -0 -0 0 1 1 1 1 1 1 1 0 1 1 1 1 2 2 2 2 3 3 3 3 3 4 4 4 3 2 2 2 1 1 1 1 1 1 1 1 1 1 1 1 4 6 6 3 0 -1 -1 1 1 2 2 3 4 5 4 3 3 2 2 2
-1 -1 -1 -0 -0 -0 -0 0 0 1 1 1 1 1 1 1 1 1 1 1 1 1 1 2 3 3 2 2 3 3 4 4 3 3 2 1 1 1 1 1 1 1 2 2 1 1 1 1 1 2 3 4 2 1 -0 -0 1 2 3 4 5 5 4 3 2 1 1 1 0
0 0 0 0 -0 -0 -0 -0 0 0 1 1 1 1 1 1 1 1 1 1 1 0 1 4 4 2 1 2 3 4 3 3 3 2 2 1 1 1 1 2 2 2 2 2 1 1 1 1 1 1 1 1 1 0 -0 -0 -0 1 2 4 4 3 2 1 0 -0 -1 -2 -2
1 1 1 0 0 0 -0 -0 -0 0 0 1 1 1 1 1 1 1 1 1 0 0 2 7 5 2 0 2 3 3 3 3 3 3 3 1 1 1 2 3 3 3 2 1 1 1 1 1 1 1 1 0 0 -0 -0 0 0 0 0 1 2 1 0 -1 -2 -2 -3 -3 -2
1 1 1 1 1 0 0 -0 0 0 1 1 1 1 1 1 1 1 1 0 -1 1 5 9 5 2 0 2 3 3 4 4 4 4 2 1 1 2 2 2 2 2 2 1 1 1 1 1 1 0 -0 -0 -0 -1 -0 0 0 0 -0 -0 0 0 -1 -2 -3 -2 -2 -1 -0
1 1 1 1 1 0 0 0 1 1 0 0 0 0 0 1 1 1 1 -1 -1 3 7 9 4 1 -0 1 1 2 3 3 3 3 1 1 1 1 1 1 1 1 1 0 1 1 1 0 -0 -1 -1 -1 -1 -1 -0 0 0 0 -0 -1 -0 -0 -0 -1 -0 0 1 1 1
1 1 1 1 1 1 1 1 1 0 0 -0 -0 0 1 1 1 1 0 -2 0 4 7 8 3 0 0 2 2 2 3 3 4 4 3 2 2 2 2 2 1 1 1 1 1 1 0 0 -1 -1 -1 -1 -1 -0 -0 -0 -0 -0 -0 -1 -1 -0 -0 -0 0 1 1 1 1
1 1 0 0 1 1 1 0 0 0 0 -0 0 0 1 1 1 0 -1 -2 3 7 8 6 2 1 1 3 5 6 7 8 9 7 4 3 3 3 3 2 2 2 3 4 4 3 2 1 -1 -1 -1 -1 -1 -0 -0 -1 -1 -1 -1 -1 -1 -1 -1 -1 -1 -1 -1 -1 -1
0 0 1 1 1 1 1 0 0 0 0 0 0 0 0 -0 -0 -1 -1 -1 6 10 10 5 2 1 2 2 4 6 7 8 6 4 2 1 1 1 2 1 1 1 3 4 4 2 1 -0 -1 -1 -1 -1 -1 -1 -1 -1 -1 -1 -1 -1 -1 -2 -2 -2 -3 -2 -2 -2 -1
-0 0 1 1 1 0 0 0 -0 -0 -1 -0 -0 -1 -1 -1 -2 -2 -1 1 8 11 10 4 1 1 1 2 2 2 2 1 0 -0 0 0 1 1 1 1 1 1 1 1 0 -1 -1 -1 -1 -1 -1 -1 -1 -1 -1 -1 -1 -1 -2 -2 -2 -2 -3 -3 -2 -2 -1 -1 -0
-1 -0 0 0 0 -0 -1 -1 -2 -2 -2 -2 -2 -2 -2 -2 -1 0 2 4 9 9 6 1 -0 -0 0 1 -0 -1 -2 -2 -1 -1 -0 -0 0 0 1 1 1 1 1 -0 -1 -1 -1 -1 -1 -1 -1 -1 -1 -1 -2 -2 -2 -2 -2 -2 -2 -2 -2 -2 -1 -1 -0 0 0
-1 -1 -1 -1 -1 -1 -2 -3 -3 -3 -2 -1 -0 -0 -0 0 3 4 5 6 7 5 2 -1 -1 -0 1 0 -1 -2 -2 -2 -3 -3 -2 -1 0 2 2 3 3 2 0 -1 -1 -2 -2 -2 -1 -1 -1 -1 -1 -2 -2 -2 -2 -2 -1 -1 -1 -1 -1 -1 -0 0 0 0 0
1 0 -0 -0 -1 -2 -3 -3 -2 -0 2 6 9 9 9 7 6 6 6 6 7 6 4 2 3 4 5 4 5 6 7 6 4 3 2 3 4 5 5 5 4 3 1 1 -0 -1 -1 -1 -0 0 0 -0 -1 -1 -1 -1 -1 -1 -1 -1 -1 -1 -0 -0 0 0 -0 -0 -1
2 2 3 4 3 1 0 -0 2 5 9 13 16 17 16 14 10 8 8 10 12 13 12 11 12 13 14 14 14 13 12 11 10 10 9 9 10 9 8 7 6 5 4 3 1 -0 -1 -1 -1 -1 -1 -1 -0 -0 -0 -1 -1 -1 -1 -1 -1 -0 0 0 -0 -0 -1 -1 -1
0 2 4 6 5 4 3 2 5 8 10 10 13 16 17 18 16 14 13 13 16 17 18 18 19 19 18 16 13 10 8 7 8 9 10 10 9 7 6 4 4 3 2 1 -1 -3 -4 -4 -3 -2 -0 0 1 1 0 -0 -1 -1 -1 -1 -0 -0 0 -0 -1 -1 -1 -1 -1
-0 0 1 3 3 3 3 3 6 8 8 3 8 12 15 14 16 14 12 11 12 12 13 14 13 12 11 9 6 4 3 2 4 5 6 6 4 2 1 1 1 0 -1 -2 -4 -4 -4 -2 -0 1 1 1 1 1 0 -0 -1 -1 -1 -0 -1 -1 -1 -1 -1 -1 -1 -1 -0
3 2 1 0 1 1 2 4 6 7 7 4 7 9 10 9 9 8 6 4 3 3 4 4 4 4 4 2 1 1 1 2 3 4 4 2 0 -0 -1 -0 -0 -1 -2 -3 -3 -2 -1 1 2 2 2 1 1 1 0 0 -1 -1 -1 -1 -1 -1 -1 -1 -1 -1 -1 -1 -0
9 8 6 3 2 3 4 5 6 6 6 6 7 7 6 5 4 3 2 0 -1 -1 -0 0 1 1 0 0 -0 -0 0 1 2 2 1 -0 -1 -1 -1 0 1 1 0 -1 -0 1 3 4 4 3 3 2 2 1 1 0 -0 -0 -0 -0 -1 -1 -1 -1 -1 -1 -1 -1 -0
6 7 9 12 12 11 11 9 7 7 7 7 7 5 4 2 1 -0 -1 -1 -2 -2 -1 -1 -0 -0 -1 -1 -1 -1 -1 -0 0 -0 -1 -1 -1 0 1 3 5 5 3 1 2 3 4 4 4 3 2 2 1 0 0 0 -0 -0 -0 -0 -0 -0 -0 -0 -0 -0 -1 -1 -0
1 2 5 12 15 13 10 6 6 7 8 7 5 2 0 -1 -3 -3 -3 -3 -3 -2 -2 -2 -2 -2 -2 -2 -2 -2 -1 -1 -1 -1 -2 -2 -1 2 4 6 7 6 4 1 1 0 1 1 0 -0 -0 -0 -1 -1 -1 -0 -1 -1 -1 -1 -0 -1 -1 -1 -0 -0 -0 -1 -0
-0 -1 -1 1 3 2 -0 -2 -1 1 3 4 2 1 -0 -1 -2 -2 -2 -2 -2 -2 -2 -2 -2 -2 -2 -2 -2 -2 -1 -1 -0 -1 -1 -1 -0 1 3 4 3 2 1 -1 -2 -2 -2 -1 -1 -1 -1 -1 -1 -1 -1 -1 -1 -1 -1 -1 -1 -1 -1 -1 -0 -0 -0 -1 -1
0 -1 -2 -3 -4 -4 -5 -4 -3 -2 -0 1 1 1 1 1 1 1 1 0 0 0 0 0 0 0 -0 -0 -1 -0 -0 0 0 0 -0 -0 0 0 1 0 -1 -1 -2 -2 -3 -3 -3 -2 -1 -1 -1 -1 -1 -1 -1 -0 -1 -1 -2 -2 -1 -1 -0 -1 -1 -0 0 -0 -0
Height
3043 3045 3046 3047 3048 3050 3051 3052 3052 3054 3055 3056 3057 3057 3058 3059 3061 3062 3064 3064 3065 3066 3067 3069 3070 3072 3072 3073 3074 3075 3075 3076 3077 3077 3078 3078 3079 3080 3080 3081 3081 3081 3082 3082 3082 3083 3083 3084 3084 3084 3085 3086 3086 3087 3087 3088 3088 3089 3089 3089 3089 3090 3091 3091 3091 3092 3092 3092 3092
3040 3042 3043 3044 3046 3046 3047 3048 3049 3051 3052 3053 3054 3055 3056 3057 3059 3060 3061 3062 3063 3064 3065 3067 3068 3069 3070 3071 3072 3073 3073 3074 3075 3075 3076 3077 3077 3078 3078 3079 3079 3079 3080 3080 3081 3082 3082 3082 3082 3083 3083 3084 3085 3085 3086 3087 3087 3087 3087 3087 3088 3089 3089 3089 3089 3090 3090 3090 3091
3037 3039 3040 3041 3042 3043 3044 3044 3045 3047 3049 3051 3052 3053 3054 3056 3057 3058 3058 3059 3060 3062 3063 3064 3065 3067 3068 3069 3070 3071 3072 3072 3073 3073 3074 3074 3075 3076 3077 3077 3077 3078 3078 3079 3079 3080 3080 3080 3081 3081 3082 3083 3083 3083 3084 3085 3086 3086 3086 3086 3087 3087 3087 3087 3087 3088 3088 3088 3089
3035 3037 3037 3038 3039 3040 3041 3041 3042 3044 3046 3048 3050 3051 3052 3053 3054 3055 3056 3057 3058 3059 3060 3062 3063 3064 3065 3067 3067 3068 3069 3070 3071 3071 3072 3072 3073 3074 3075 3075 3076 3076 3077 3077 3078 3078 3078 3078 3079 3080 3080 3081 3082 3082 3083 3083 3084 3084 3084 3084 3085 3085 3085 3085 3086 3086 3086 3087 3087
3033 3034 3035 3036 3037 3037 3038 3038 3040 3042 3044 3046 3047 3048 3049 3050 3051 3052 3053 3054 3055 3057 3058 3059 3060 3062 3062 3064 3065 3066 3067 3068 3068 3069 3070 3070 3071 3072 3072 3073 3074 3074 3075 3076 3077 3077 3077 3077 3077 3078 3078 3079 3080 3081 3081 3082 3082 3082 3083 3083 3084 3084 3084 3084 3084 3084 3084 3084 3085
3031 3032 3032 3033 3033 3034 3035 3036 3039 3042 3043 3044 3045 3046 3046 3047 3048 3049 3050 3052 3052 3054 3055 3056 3057 3059 3060 3061 3062 3063 3064 3065 3066 3067 3067 3068 3069 3070 3070 3071 3072 3072 3073 3073 3074 3075 3075 3075 3076 3077 3077 3077 3078 3079 3080 3080 3080 3081 3081 3082 3082 3082 3082 3082 3082 3082 3082 3082 3083
3029 3030 3030 3030 3031 3032 3034 3037 3039 3040 3042 3042 3043 3043 3044 3045 3046 3047 3048 3049 3050 3051 3052 3054 3055 3056 3057 3058 3060 3061 3062 3063 3064 3064 3065 3066 3067 3067 3068 3069 3069 3070 3071 3071 3072 3073 3073 3073 3074 3075 3075 3076 3077 3077 3078 3078 3078 3078 3079 3080 3080 3080 3080 3080 3080 3080 3080 3081 3081
3027 3028 3028 3030 3031 3033 3035 3037 3038 3038 3039 3040 3041 3041 3042 3043 3044 3045 3046 3047 3048 3049 3050 3051 3052 3053 3055 3056 3057 3058 3059 3060 3061 3062 3062 3063 3064 3065 3066 3067 3067 3068 3069 3069 3070 3071 3071 3072 3073 3073 3073 3074 3075 3075 3076 3076 3076 3077 3077 3077 3078 3078 3078 3078 3078 3078 3078 3079 3079
3026 3027 3028 3030 3031 3033 3034 3035 3036 3037 3037 3038 3039 3039 3040 3041 3042 3043 3044 3045 3046 3047 3047 3049 3050 3051 3052 3053 3054 3055 3056 3057 3058 3059 3060 3061 3062 3062 3063 3064 3065 3066 3067 3067 3068 3068 3069 3071 3071 3071 3071 3072 3072 3073 3073 3074 3074 3074 3074 3075 3075 3075 3076 3076 3076 3076 3077 3077 3077
3025 3026 3027 3029 3030 3031 3032 3033 3034 3035 3035 3036 3037 3038 3039 3039 3040 3041 3042 3042 3043 3044 3045 3046 3047 3048 3049 3050 3052 3053 3054 3055 3056 3057 3058 3058 3059 3060 3061 3062 3062 3063 3064 3065 3066 3067 3067 3068 3069 3069 3069 3070 3070 3071 3071 3072 3072 3072 3072 3072 3073 3073 3073 3073 3074 3075 3075 3076 3076
3024 3025 3026 3027 3028 3030 3031 3031 3032 3033 3033 3034 3035 3036 3037 3037 3038 3039 3040 3041 3042 3042 3043 3044 3045 3046 3047 3048 3049 3050 3051 3052 3053 3054 3055 3056 3057 3057 3058 3059 3060 3061 3062 3063 3064 3064 3065 3066 3067 3067 3068 3068 3068 3069 3069 3069 3070 3070 3070 3071 3071 3072 3072 3072 3073 3073 3074 3074 3074
3022 3024 3025 3026 3027 3028 3029 3029 3030 3031 3032 3032 3033 3034 3035 3036 3037 3037 3038 3039 3039 3040 3041 3042 3042 3043 3044 3045 3046 3047 3049 3050 3051 3052 3053 3053 3054 3055 3056 3057 3058 3059 3060 3061 3062 3062 3063 3064 3065 3065 3065 3066 3067 3067 3067 3067 3068 3068 3069 3069 3070 3070 3070 3071 3071 3072 3072 3072 3072
3021 3022 3023 3024 3025 3026 3027 3027 3028 3029 3030 3031 3032 3032 3033 3034 3034 3035 3036 3037 3037 3038 3038 3039 3040 3041 3042 3043 3044 3045 3046 3047 3048 3049 3050 3051 3052 3053 3054 3055 3056 3057 3058 3059 3059 3060 3061 3062 3062 3063 3063 3064 3064 3065 3065 3066 3067 3067 3068 3068 3068 3069 3069 3070 3070 3070 3071 3071 3070
3019 3020 3022 3022 3023 3024 3025 3025 3026 3027 3028 3029 3030 3031 3031 3032 3032 3033 3034 3034 3035 3036 3036 3037 3038 3038 3039 3040 3042 3043 3044 3045 3046 3047 3048 3049 3050 3051 3052 3053 3054 3055 3056 3057 3057 3058 3059 3060 3061 3061 3062 3062 3063 3063 3064 3064 3065 3066 3066 3067 3067 3067 3067 3068 3068 3069 3069 3068 3068
3017 3018 3019 3021 3022 3022 3023 3023 3024 3025 3026 3027 3028 3029 3029 3030 3030 3031 3031 3032 3032 3033 3034 3035 3035 3036 3037 3038 3039 3041 3042 3042 3044 3045 3046 3047 3048 3049 3050 3051 3052 3053 3054 3055 3056 3057 3057 3058 3059 3060 3061 3061 3062 3062 3062 3063 3063 3064 3065 3065 3065 3066 3066 3066 3066 3066 3066 3066 3066
3015 3017 3017 3018 3019 3020 3021 3022 3022 3023 3024 3025 3026 3027 3027 3027 3028 3028 3029 3030 3030 3031 3032 3032 3033 3034 3035 3036 3037 3038 3040 3040 3042 3043 3044 3045 3046 3047 3048 3049 3050 3051 3052 3053 3054 3055 3056 3056 3057 3059 3059 3060 3060 3060 3061 3061 3062 3062 3063 3064 3064 3064 3064 3064 3064 3064 3063 3063 3063
3013 3014 3015 3016 3017 3018 3019 3020 3020 3021 3022 3023 3024 3024 3025 3025 3026 3027 3027 3027 3028 3029 3030 3030 3031 3032 3033 3034 3035 3037 3038 3039 3040 3041 3042 3043 3044 3045 3046 3047 3048 3049 3050 3051 3052 3052 3053 3055 3056 3057 3057 3057 3057 3058 3058 3059 3059 3060 3061 3062 3062 3062 3062 3062 3061 3061 3061 3061 3061
3012 3012 3013 3014 3015 3016 3017 3017 3018 3019 3020 3021 3022 3022 3023 3023 3024 3024 3025 3025 3026 3027 3028 3028 3029 3030 3032 3032 3033 3034 3036 3037 3037 3039 3040 3041 3042 3043 3044 3045 3046 3047 3048 3049 3050 3051 3052 3052 3053 3054 3055 3055 3055 3055 3056 3056 3057 3058 3059 3059 3060 3060 3060 3059 3059 3059 3058 3058 3058
3009 3010 3011 3012 3013 3014 3015 3016 3017 3017 3018 3019 3020 3020 3021 3021 3022 3022 3023 3023 3024 3025 3026 3027 3027 3029 3030 3031 3032 3033 3034 3035 3036 3037 3038 3039 3040 3041 3042 3043 3044 3045 3046 3047 3048 3049 3050 3051 3052 3052 3053 3053 3053 3053 3053 3054 3055 3056 3056 3057 3057 3057 3057 3057 3057 3056 3056 3056 3056
3008 3008 3009 3010 3011 3012 3013 3013 3014 3015 3016 3017 3017 3018 3018 3019 3020 3020 3021 3022 3022 3023 3024 3025 3026 3027 3028 3029 3030 3031 3032 3033 3034 3035 3036 3037 3038 3039 3040 3041 3042 3043 3044 3045 3046 3047 3048 3048 3049 3050 3050 3051 3051 3051 3052 3052 3053 3054 3055 3055 3055 3055 3054 3054 3054 3054 3054 3054 3054
3006 3007 3007 3008 3009 3010 3011 3012 3012 3013 3014 3015 3015 3016 3016 3017 3017 3018 3019 3020 3021 3022 3022 3023 3025 3025 3026 3027 3028 3029 3030 3031 3032 3033 3034 3035 3036 3037 3038 3039 3040 3041 3042 3043 3044 3045 3046 3047 3047 3048 3048 3049 3049 3049 3050 3051 3052 3052 3052 3053 3053 3052 3052 3052 3052 3052 3051 3051 3052
3004 3005 3006 3007 3007 3008 3009 3010 3010 3011 3012 3012 3013 3013 3014 3015 3016 3016 3017 3018 3019 3020 3021 3022 3023 3024 3024 3025 3027 3027 3028 3030 3031 3032 3032 3033 3034 3035 3037 3037 3039 3040 3041 3041 3042 3043 3044 3045 3045 3046 3047 3047 3047 3047 3048 3048 3049 3050 3050 3050 3050 3050 3049 3049 3049 3049 3049 3049 3049
3002 3003 3004 3005 3005 3006 3007 3008 3008 3009 3010 3010 3011 3012 3012 3013 3014 3015 3016 3017 3018 3019 3020 3021 3022 3022 3023 3024 3025 3026 3027 3028 3029 3030 3031 3032 3033 3034 3035 3036 3037 3038 3039 3040 3040 3041 3042 3043 3043 3044 3045 3045 3045 3046 3046 3047 3047 3047 3047 3047 3047 3047 3047 3047 3047 3047 3047 3046 3046
3000 3001 3002 3003 3003 3004 3005 3006 3007 3007 3008 3008 3009 3010 3011 3011 3012 3013 3014 3015 3017 3018 3019 3020 3021 3021 3021 3022 3023 3025 3026 3027 3028 3029 3029 3030 3031 3032 3033 3034 3035 3036 3037 3038 3038 3039 3040 3041 3042 3042 3042 3043 3043 3043 3044 3044 3045 3045 3045 3044 3044 3044 3044 3044 3044 3044 3044 3044 3043
2998 2999 3000 3001 3002 3002 3003 3004 3005 3005 3006 3007 3007 3008 3009 3010 3011 3012 3013 3014 3016 3017 3018 3018 3019 3019 3020 3021 3022 3023 3024 3025 3026 3027 3028 3029 3030 3031 3032 3032 3033 3034 3035 3036 3037 3038 3038 3039 3039 3040 3040 3041 3041 3042 3042 3042 3042 3042 3042 3042 3042 3042 3042 3041 3041 3041 3041 3041 3041
2997 2997 2998 2999 3000 3001 3002 3002 3003 3004 3005 3005 3006 3007 3007 3008 3009 3011 3012 3013 3014 3016 3016 3017 3017 3018 3019 3020 3021 3022 3023 3024 3025 3026 3027 3027 3028 3029 3030 3032 3032 3033 3034 3035 3036 3036 3037 3037 3037 3038 3038 3039 3039 3039 3040 3040 3040 3040 3040 3040 3040 3040 3040 3039 3039 3039 3039 3039 3039
2995 2996 2997 2997 2998 2999 3000 3001 3002 3002 3003 3004 3005 3005 3006 3007 3008 3009 3011 3012 3013 3014 3014 3015 3016 3017 3018 3019 3020 3021 3022 3024 3025 3025 3026 3027 3027 3028 3029 3030 3031 3032 3032 3033 3033 3034 3034 3035 3035 3036 3036 3037 3037 3037 3037 3037 3038 3038 3038 3038 3038 3038 3038 3038 3038 3037 3037 3037 3037
2994 2995 2996 2996 2997 2998 2999 3000 3001 3001 3002 3003 3003 3004 3005 3006 3007 3008 3010 3011 3012 3012 3012 3013 3014 3016 3017 3018 3019 3020 3021 3022 3023 3024 3024 3025 3026 3027 3028 3029 3029 3030 3031 3031 3032 3032 3032 3033 3033 3034 3034 3034 3035 3035 3035 3035 3036 3036 3036 3036 3036 3036 3036 3036 3036 3036 3035 3035 3034
2993 2994 2994 2995 2996 2997 2998 2999 2999 3000 3001 3002 3002 3003 3004 3005 3006 3007 3009 3010 3010 3011 3011 3012 3013 3014 3015 3016 3017 3018 3019 3020 3021 3022 3022 3024 3025 3026 3027 3027 3028 3028 3029 3030 3030 3030 3031 3031 3032 3032 3032 3032 3033 3033 3033 3033 3033 3034 3034 3034 3034 3034 3034 3033 3033 3033 3032 3032 3031
2992 2993 2994 2995 2995 2996 2997 2998 2999 3000 3000 3001 3002 3002 3003 3004 3005 3007 3007 3008 3008 3009 3010 3011 3012 3013 3014 3015 3016 3017 3018 3019 3020 3021 3022 3022 3023 3024 3025 3026 3027 3027 3027 3028 3028 3029 3029 3029 3030 3030 3030 3031 3031 3031 3031 3032 3032 3032 3032 3032 3032 3032 3031 3031 3030 3030 3029 3029 3028
2992 2993 2994 2994 2995 2996 2997 2998 2998 2999 3000 3000 3001 3001 3002 3003 3004 3005 3006 3006 3007 3008 3010 3011 3012 3012 3013 3014 3015 3016 3017 3017 3018 3019 3020 3021 3022 3023 3024 3025 3025 3026 3026 3026 3027 3027 3027 3028 3028 3028 3028 3029 3029 3029 3029 3030 3030 3030 3029 3029 3029 3029 3028 3028 3027 3027 3027 3026 3025
2993 2993 2994 2994 2995 2996 2997 2997 2998 2999 2999 2999 2999 2999 3000 3001 3002 3003 3004 3005 3006 3008 3009 3009 3010 3012 3012 3014 3015 3015 3016 3017 3018 3019 3020 3021 3022 3022 3023 3024 3024 3024 3024 3025 3025 3025 3025 3026 3026 3026 3027 3027 3027 3027 3027 3027 3027 3027 3027 3027 3026 3026 3025 3025 3025 3024 3024 3023 3022
2993 2993 2994 2994 2995 2996 2997 2997 2998 2998 2997 2997 2997 2997 2998 2999 3001 3002 3003 3004 3005 3007 3008 3009 3010 3011 3012 3012 3013 3014 3015 3016 3017 3018 3019 3020 3020 3021 3022 3022 3022 3022 3022 3023 3023 3023 3023 3024 3024 3025 3025 3025 3025 3025 3025 3025 3025 3024 3024 3024 3023 3023 3023 3022 3022 3022 3021 3020 3020
2993 2993 2994 2994 2995 2995 2996 2997 2997 2997 2997 2997 2996 2996 2997 2999 2999 3000 3002 3003 3004 3005 3007 3007 3008 3009 3010 3011 3011 3012 3013 3014 3015 3016 3017 3017 3018 3018 3019 3019 3020 3020 3021 3021 3021 3021 3022 3022 3022 3023 3023 3023 3022 3022 3022 3022 3022 3022 3022 3021 3021 3021 3020 3020 3019 3019 3018 3017 3017
2993 2993 2994 2994 2995 2995 2996 2996 2997 2997 2997 2997 2997 2997 2999 2999 2998 2999 3000 3001 3002 3003 3005 3006 3007 3007 3008 3008 3010 3011 3011 3012 3013 3014 3015 3016 3016 3016 3017 3017 3018 3018 3019 3019 3019 3019 3020 3020 3020 3020 3020 3020 3020 3020 3020 3020 3019 3019 3019 3019 3018 3018 3017 3017 3017 3016 3015 3015 3014
2993 2993 2994 2994 2995 2995 2995 2996 2996 2997 2997 2997 2997 2998 2998 2998 2998 2998 2999 3000 3002 3002 3003 3004 3005 3006 3007 3007 3008 3009 3010 3011 3012 3012 3013 3013 3014 3014 3015 3016 3016 3017 3017 3017 3017 3017 3017 3018 3018 3018 3018 3018 3018 3018 3017 3017 3017 3017 3017 3017 3016 3016 3015 3014 3014 3013 3012 3012 3011
2993 2993 2994 2994 2995 2995 2995 2996 2996 2996 2996 2997 2997 2997 2997 2998 2998 2999 3000 3001 3002 3002 3003 3004 3005 3006 3006 3007 3008 3008 3009 3010 3010 3011 3011 3012 3012 3012 3013 3014 3015 3015 3015 3015 3015 3016 3016 3016 3016 3016 3016 3016 3016 3016 3016 3015 3015 3015 3014 3014 3013 3013 3012 3012 3011 3010 3010 3009 3008
2993 2993 2994 2994 2994 2995 2995 2995 2996 2996 2996 2996 2997 2997 2997 2998 2999 3000 3000 3001 3002 3002 3003 3004 3004 3005 3006 3006 3007 3007 3008 3009 3009 3009 3010 3010 3011 3011 3012 3013 3014 3014 3014 3013 3013 3014 3014 3014 3014 3014 3014 3014 3014 3013 3013 3013 3013 3012 3012 3012 3011 3011 3010 3009 3008 3007 3007 3006 3005
2992 2993 2994 2994 2994 2994 2995 2995 2996 2996 2996 2996 2997 2997 2998 2999 3000 3001 3001 3002 3002 3003 3003 3004 3004 3005 3005 3006 3007 3007 3007 3008 3008 3008 3009 3009 3010 3011 3011 3012 3012 3012 3012 3012 3011 3012 3012 3012 3012 3012 3012 3012 3012 3011 3011 3011 3010 3010 3009 3009 3008 3008 3007 3006 3006 3005 3004 3003 3002
2992 2993 2993 2993 2994 2994 2995 2996 2996 2996 2996 2997 2997 2998 2998 2999 3000 3001 3002 3002 3002 3003 3003 3003 3004 3004 3005 3005 3006 3006 3007 3007 3007 3008 3008 3008 3009 3009 3009 3009 3010 3010 3010 3009 3009 3009 3009 3009 3009 3009 3009 3009 3009 3009 3008 3008 3008 3007 3007 3006 3006 3005 3004 3003 3003 3002 3001 3000 3000
2992 2992 2993 2993 2994 2994 2995 2995 2996 2996 2996 2997 2997 2998 2998 2999 3000 3000 3001 3001 3002 3002 3002 3002 3003 3003 3004 3004 3004 3005 3005 3006 3006 3007 3007 3007 3007 3007 3007 3007 3007 3007 3007 3007 3007 3007 3007 3007 3007 3007 3007 3007 3007 3006 3006 3006 3005 3004 3004 3003 3002 3002 3001 3001 3000 2999 2998 2997 2997